Regional Weather Roundup
Issued by NWS

Home | Current Version | Previous Version | Text Only | Print | Product List | Glossary Off
Versions: 1 2 3 4 5 6 7 8 9 10 11 12 13 14 15 16 17 18 19 20 21 22 23 24 25 26 27 28 29 30 31 32 33 34 35 36 37 38 39 40 41 42 43 44 45 46 47 48 49 50

000
ASUS43 KDMX 261006
RWRIA

WEATHER ROUNDUP FOR IOWA
NATIONAL WEATHER SERVICE DES MOINES IA
500 AM CDT SUN MAR 26 2017

NOTE: "FAIR" INDICATES FEW OR NO CLOUDS BELOW 12,000 FEET WITH NO
SIGNIFICANT WEATHER AND/OR OBSTRUCTIONS TO VISIBILITY.

* - THESE STATIONS ARE NOT NWS STATIONS...THUS NOT UNDER NWS
QUALITY CONTROL.  THEY ALSO DO NOT REPORT WEATHER SUCH
AS PRECIPITATION OR FOG.

IAZ001>003-012>014-020>022-031>034-043>046-261100-
   NORTHWEST IOWA

CITY           SKY/WX    TMP DP  RH WIND       PRES   REMARKS
CARROLL *      CLOUDY    37  37 100 N7        29.87S FOG     WCI  32
CHEROKEE *     CLOUDY    37  37 100 N5        29.89S FOG     WCI  33
LE MARS *      CLOUDY    37  37 100 N5        29.91S WCI  34
ORANGE CITY *  FOG       37  37 100 NE3       29.89F VSB 1
SHELDON *      CLOUDY    36  36 100 NE6       29.88F FOG     WCI  31
SIOUX CITY     CLOUDY    39  38  96 NE7       29.90S WCI  34
SPENCER        CLOUDY    37  36  96 N7        29.89F WCI  32
STORM LAKE *   CLOUDY    36  36 100 NE8       29.88S FOG     WCI  29
$$

IAZ055>058-069>071-079>083-090>094-261100-
   SOUTHWEST IOWA

CITY           SKY/WX    TMP DP  RH WIND       PRES   REMARKS
ATLANTIC *     CLOUDY    39  39 100 N7        29.87F FOG     WCI  34
AUDUBON *      CLOUDY    37  36  93 N6        29.88S FOG     WCI  33
CLARINDA *     CLOUDY    41  41 100 N8        29.89S
COUNCIL BLFS * CLOUDY    39  39 100 N7        29.88S FOG     WCI  34
CRESTON *      MIX PCPN  39  39 100 NW12      29.87R VSB 3/4 WCI  32
HARLAN  *      CLOUDY    39  39 100 N8        29.90F WCI  34
LAMONI         FOG       42  41  96 NW10      29.83S VSB 3/4
RED OAK *      CLOUDY    41  41 100 N7        29.88S
SHENANDOAH *   CLOUDY    41  41 100 N6        29.89S FOG
$$

IAZ047>049-059>061-072>074-084-261100-
   CENTRAL IOWA

CITY           SKY/WX    TMP DP  RH WIND       PRES   REMARKS
AMES           CLOUDY    40  40 100 N7        29.84F
ANKENY *       CLOUDY    41  39  93 N6        29.85S
BOONE *        CLOUDY    39  39 100 N8        29.84S FOG     WCI  34
CHARITON *     FOG       41  41 100 NW10      29.82R VSB 3/4
DES MOINES     CLOUDY    42  41  96 N7        29.84S FOG
GRINNELL*      FOG       40  40  98 N8        29.82F VSB 1/2
KNOXVILLE *    CLOUDY    43  41  93 N8        29.81
MARSHALLTOWN   FOG       39  39 100 NE10      29.83F VSB 1   WCI  32
NEWTON *       CLOUDY    41  41 100 NE10      29.81F FOG
PELLA *        DRIZZLE   41  41  99 N8        29.83S
PERRY *        FOG       40  39  97 NW8       29.86S VSB 1   WCI  34
$$

IAZ004>006-015-016-023>025-035-036-261100-
   NORTH CENTRAL IOWA

CITY           SKY/WX    TMP DP  RH WIND       PRES   REMARKS
ALGONA *       MIX PCPN  37  37 100 NE8       29.88S WCI  31
CLARION *      CLOUDY    37  37 100 NE9       29.86F FOG     WCI  31
ESTHERVILLE    CLOUDY    35  35 100 NE7       29.88F WCI  29
FORT DODGE *   CLOUDY    37  34  87 NE7       29.88S WCI  32
MASON CITY     CLOUDY    37  36  96 NE7       29.89S FOG     WCI  32
FOREST CITY *  FOG       36  36 100 NE7       29.88S VSB 3/4 WCI  30
WEBSTER CITY * FOG       37  37 100 N8        29.84S VSB 1   WCI  31
IOWA FALLS *   DRIZZLE   39  38  97 NE8       29.86F WCI  33
$$

IAZ007>011-017>019-026>030-037>042-050>054-066-261100-
   NORTHEAST IOWA

CITY           SKY/WX    TMP DP  RH WIND       PRES   REMARKS
CEDAR RAPIDS   LGT RAIN  42  42 100 NE6       29.80S VSB 1/2
CHARLES CITY * CLOUDY    37  37 100 NE7G14    29.87S FOG     WCI  32
CLINTON *      LGT RAIN  47  46  97 NE10      29.81F VSB 1/2
DECORAH *      CLOUDY    37  36  93 NE6       29.87F FOG     WCI  33
DUBUQUE        LGT RAIN  40  40 100 NE15      29.83S VSB 1/2 WCI  32
MONTICELLO *   CLOUDY    43  41  93 NE8       29.82F FOG
OELWEIN *      FOG       39  39 100 NE14      29.84F VSB 3/4 WCI  31
WATERLOO       CLOUDY    39  38  96 NE7       29.85S FOG     WCI  34
$$

IAZ064-065-067-068-078-261100-
   EAST CENTRAL IOWA

CITY           SKY/WX    TMP DP  RH WIND       PRES   REMARKS
DAVENPORT      FOG       47  47 100 E8        29.80F VSB 1/4
IOWA CITY      CLOUDY    46  44  93 NE8       29.81F
MUSCATINE *    CLOUDY    48  46  93 N6        29.80S FOG
QUAD CITIES    FOG       49  47  93 E8        29.79F VSB 1/4
$$

IAZ062-063-075>077-085>089-095>099-261100-
   SOUTHEAST IOWA

CITY           SKY/WX    TMP DP  RH WIND       PRES   REMARKS
BURLINGTON     CLOUDY    54  53  97 SE5       29.77S
FAIRFIELD *    FOG       46  46 100 N9        29.77F VSB 1/4
FORT MADISON * CLOUDY    55  54  94 SE6       29.77S
KEOKUK *       FOG       52  52 100 SW10      29.76R VSB 1
OSKALOOSA *    LGT RAIN  42  42  99 N9        29.80S
OTTUMWA        LGT RAIN  45  45 100 N9        29.78F FOG
WASHINGTON *   FOG       45  45 100 NE10      29.79F VSB 1/4
$$

ABBREVIATIONS USED IN REMARKS
   TC - TEMPERATURES IN CELSIUS
  WCI - WIND CHILL INDEX
   HX - HEAT INDEX
  VSB - VISIBILITY
$$





USA.gov is the U.S. government's official web portal to all federal, state and local government web resources and services.